When you browse on this site, cookies collect data to enhance your experience and personalize the content and advertising you see.
Visit our Privacy Policy to learn more. By continuing to use the site, you agree to this use of cookies and data.
  • In Romania
  • List of Countries
  • For 7 days
  • Water Temperature
  • Satellite Maps
  • Weather Map
  • Weather Widgets
  • user-avatar
    Login

    Hourly Weather Encamp

    Today, 22 January, Tuesday

    Time Temperature Precipitation Wind Pressure Humidity
    00:00 -10°C° 0 mm 2 mps 617 mmHg 82%
    01:00 -10°C° 0 mm 2 mps 617 mmHg 75%
    02:00 -10°C° 0 mm 2 mps 617 mmHg 68%
    03:00 -10°C° 0 mm 2 mps 616 mmHg 62%
    04:00 -10°C° 0 mm 2 mps 616 mmHg 57%
    05:00 -10°C° 0 mm 2 mps 616 mmHg 53%
    06:00 -10°C° 0 mm 2 mps 615 mmHg 49%
    07:00 -9°C° 0 mm 2 mps 616 mmHg 48%
    08:00 -8°C° 0 mm 2 mps 616 mmHg 47%
    09:00 -6°C° 0 mm 2 mps 616 mmHg 47%
    10:00 -2°C° 0 mm 1 mps 616 mmHg 43%
    11:00 -1°C° 0 mm 1 mps 616 mmHg 40%
    12:00 +1°C° 0 mm 1 mps 616 mmHg 37%
    13:00 0°C° 0.3 mm 1 mps 616 mmHg 48%
    14:00 0°C° 0.3 mm 1 mps 615 mmHg 60%
    15:00 -1°C° 0.3 mm 1 mps 614 mmHg 71%
    16:00 -4°C° 0.5 mm 2 mps 614 mmHg 74%
    17:00 -5°C° 0.5 mm 3 mps 613 mmHg 78%
    18:00 -6°C° 0.5 mm 3 mps 613 mmHg 81%
    19:00 -7°C° 0 mm 3 mps 612 mmHg 83%
    20:00 -7°C° 0 mm 2 mps 612 mmHg 84%
    21:00 -9°C° 0 mm 2 mps 611 mmHg 85%
    22:00 -8°C° 0.1 mm 2 mps 611 mmHg 86%
    23:00 -6°C° 0.1 mm 1 mps 611 mmHg 86%

    Tomorrow, 23 January, Wednesday

    Time Temperature Precipitation Wind Pressure Humidity
    00:00 -6°C° 0.1 mm 1 mps 611 mmHg 87%
    01:00 -4°C° 0.6 mm 1 mps 611 mmHg 87%
    02:00 -6°C° 0.6 mm 2 mps 611 mmHg 87%
    03:00 -5°C° 0.6 mm 2 mps 611 mmHg 88%
    04:00 -3°C° 0.8 mm 1 mps 610 mmHg 89%
    05:00 -4°C° 0.8 mm 1 mps 609 mmHg 91%
    06:00 -4°C° 0.8 mm 1 mps 608 mmHg 92%
    07:00 -4°C° 1.7 mm 1 mps 607 mmHg 93%
    08:00 -3°C° 1.7 mm 1 mps 607 mmHg 94%
    09:00 -3°C° 1.7 mm 1 mps 607 mmHg 94%
    10:00 -5°C° 2 mm 2 mps 607 mmHg 94%
    11:00 -6°C° 2 mm 3 mps 607 mmHg 94%
    12:00 -7°C° 2 mm 4 mps 607 mmHg 94%
    13:00 -8°C° 1.2 mm 5 mps 607 mmHg 93%
    14:00 -10°C° 1.2 mm 6 mps 607 mmHg 93%
    15:00 -10°C° 1.2 mm 6 mps 607 mmHg 93%
    16:00 -12°C° 1 mm 7 mps 607 mmHg 93%
    17:00 -12°C° 1 mm 7 mps 607 mmHg 94%
    18:00 -13°C° 1 mm 7 mps 607 mmHg 95%
    19:00 -13°C° 0.6 mm 7 mps 608 mmHg 94%
    20:00 -15°C° 0.6 mm 8 mps 608 mmHg 94%
    21:00 -15°C° 0.6 mm 8 mps 608 mmHg 93%
    22:00 -15°C° 0.8 mm 8 mps 608 mmHg 93%
    23:00 -15°C° 0.8 mm 8 mps 609 mmHg 93%

    Day after tomorrow, 24 January, Thursday

    Time Temperature Precipitation Wind Pressure Humidity
    00:00 -15°C° 0.8 mm 8 mps 609 mmHg 93%
    01:00 -16°C° 0.8 mm 8 mps 609 mmHg 93%
    02:00 -15°C° 0.8 mm 7 mps 609 mmHg 93%
    03:00 -15°C° 0.8 mm 7 mps 610 mmHg 93%
    04:00 -15°C° 0.5 mm 7 mps 610 mmHg 93%
    05:00 -15°C° 0.5 mm 7 mps 611 mmHg 92%
    06:00 -15°C° 0.5 mm 7 mps 611 mmHg 92%
    07:00 -15°C° 0.2 mm 7 mps 611 mmHg 90%
    08:00 -15°C° 0.2 mm 7 mps 612 mmHg 89%
    09:00 -15°C° 0.2 mm 7 mps 612 mmHg 87%
    10:00 -14°C° 0.1 mm 7 mps 613 mmHg 86%
    11:00 -13°C° 0.1 mm 7 mps 614 mmHg 84%
    12:00 -11°C° 0.1 mm 6 mps 614 mmHg 83%
    13:00 -11°C° 0 mm 6 mps 615 mmHg 83%
    14:00 -11°C° 0 mm 6 mps 615 mmHg 83%
    15:00 -11°C° 0 mm 6 mps 615 mmHg 82%
    16:00 -12°C° 0 mm 5 mps 615 mmHg 84%
    17:00 -13°C° 0 mm 5 mps 615 mmHg 86%
    18:00 -14°C° 0 mm 5 mps 615 mmHg 87%
    19:00 -15°C° 0 mm 4 mps 615 mmHg 87%
    20:00 -15°C° 0 mm 4 mps 616 mmHg 88%
    21:00 -15°C° 0 mm 4 mps 616 mmHg 88%
    22:00 -15°C° 0 mm 4 mps 616 mmHg 87%
    23:00 -16°C° 0 mm 4 mps 616 mmHg 85%

    25 January, Friday

    Time Temperature Precipitation Wind Pressure Humidity
    00:00 -16°C° 0 mm 4 mps 616 mmHg 84%
    01:00 -16°C° 0 mm 4 mps 616 mmHg 80%
    02:00 -15°C° 0 mm 4 mps 616 mmHg 77%
    03:00 -15°C° 0 mm 4 mps 616 mmHg 73%
    04:00 -14°C° 0 mm 4 mps 617 mmHg 73%
    05:00 -12°C° 0 mm 4 mps 617 mmHg 73%
    06:00 -12°C° 0 mm 4 mps 617 mmHg 73%
    07:00 -10°C° 0 mm 4 mps 618 mmHg 77%
    08:00 -8°C° 0 mm 4 mps 619 mmHg 81%
    09:00 -5°C° 0 mm 4 mps 621 mmHg 85%
    10:00 -4°C° 0 mm 4 mps 621 mmHg 87%
    11:00 -3°C° 0 mm 4 mps 621 mmHg 88%
    12:00 -2°C° 0 mm 5 mps 622 mmHg 89%
    13:00 -2°C° 0 mm 4 mps 621 mmHg 89%
    14:00 -2°C° 0 mm 4 mps 621 mmHg 90%
    15:00 -2°C° 0 mm 4 mps 621 mmHg 90%
    16:00 -2°C° 0 mm 4 mps 621 mmHg 91%
    17:00 -3°C° 0 mm 4 mps 621 mmHg 91%
    18:00 -4°C° 0 mm 4 mps 621 mmHg 92%
    19:00 -4°C° 0 mm 3 mps 621 mmHg 92%
    20:00 -4°C° 0 mm 3 mps 621 mmHg 92%
    21:00 -4°C° 0 mm 3 mps 622 mmHg 92%
    22:00 -4°C° 0 mm 3 mps 622 mmHg 92%
    23:00 -5°C° 0 mm 3 mps 621 mmHg 92%

    26 January, Saturday

    Time Temperature Precipitation Wind Pressure Humidity
    00:00 -4°C° 0 mm 2 mps 621 mmHg 93%
    01:00 -5°C° 0 mm 2 mps 621 mmHg 92%
    02:00 -5°C° 0 mm 2 mps 620 mmHg 92%
    03:00 -6°C° 0 mm 2 mps 620 mmHg 91%
    04:00 -6°C° 0 mm 2 mps 620 mmHg 90%
    05:00 -6°C° 0 mm 2 mps 620 mmHg 89%
    06:00 -6°C° 0 mm 2 mps 619 mmHg 88%
    07:00 -5°C° 0 mm 2 mps 620 mmHg 87%
    08:00 -3°C° 0 mm 2 mps 621 mmHg 86%
    09:00 0°C° 0 mm 1 mps 621 mmHg 85%
    10:00 +1°C° 0 mm 1 mps 621 mmHg 87%
    11:00 +3°C° 0 mm 1 mps 622 mmHg 88%
    12:00 +4°C° 0 mm 1 mps 622 mmHg 90%
    13:00 +4°C° 0 mm 1 mps 621 mmHg 92%
    14:00 +3°C° 0 mm 1 mps 620 mmHg 93%
    15:00 +3°C° 0 mm 1 mps 620 mmHg 95%
    16:00 +2°C° 0 mm 1 mps 619 mmHg 95%
    17:00 0°C° 0 mm 1 mps 619 mmHg 95%
    18:00 -1°C° 0 mm 1 mps 618 mmHg 96%
    19:00 -2°C° 0 mm 1 mps 618 mmHg 94%
    20:00 -5°C° 0 mm 2 mps 617 mmHg 93%
    21:00 -6°C° 0 mm 2 mps 617 mmHg 92%
    22:00 -5°C° 0.1 mm 2 mps 617 mmHg 92%
    23:00 -5°C° 0.1 mm 2 mps 617 mmHg 91%

    27 January, Sunday

    Time Temperature Precipitation Wind Pressure Humidity
    00:00 -5°C° 0.1 mm 3 mps 616 mmHg 91%
    01:00 -5°C° 0.1 mm 3 mps 616 mmHg 91%
    02:00 -7°C° 0.1 mm 4 mps 616 mmHg 91%
    03:00 -7°C° 0.1 mm 4 mps 616 mmHg 91%
    04:00 -8°C° 0.1 mm 4 mps 617 mmHg 91%
    05:00 -8°C° 0.1 mm 4 mps 617 mmHg 90%
    06:00 -9°C° 0.1 mm 4 mps 617 mmHg 90%
    07:00 -9°C° 0 mm 4 mps 617 mmHg 88%
    08:00 -9°C° 0 mm 4 mps 617 mmHg 87%
    09:00 -9°C° 0 mm 4 mps 618 mmHg 85%
    10:00 -8°C° 0 mm 4 mps 618 mmHg 84%
    11:00 -7°C° 0 mm 4 mps 618 mmHg 83%
    12:00 -5°C° 0 mm 4 mps 618 mmHg 82%
    13:00 -5°C° 0.1 mm 4 mps 618 mmHg 83%
    14:00 -5°C° 0.1 mm 4 mps 617 mmHg 83%
    15:00 -5°C° 0.1 mm 4 mps 617 mmHg 83%
    16:00 -5°C° 0.1 mm 3 mps 616 mmHg 86%
    17:00 -6°C° 0.1 mm 3 mps 616 mmHg 89%
    18:00 -6°C° 0.1 mm 2 mps 615 mmHg 92%
    19:00 -6°C° 0 mm 2 mps 614 mmHg 91%
    20:00 -7°C° 0 mm 2 mps 614 mmHg 90%
    21:00 -7°C° 0 mm 2 mps 613 mmHg 90%
    22:00 -6°C° 1.6 mm 2 mps 613 mmHg 92%
    23:00 -5°C° 1.6 mm 2 mps 613 mmHg 94%
    Show more